[[{"header":{"parameterUnit":"m.s-1","parameterCategory":1,"la1":30.2991,"la2":30.254,"lo1":-89.0895,"lo2":-89.0444,"dy":0.0017,"dx":0.0017,"nx":28,"ny":28,"refTime":"2025-06-16T21:00:00:Z","depth":0,"parameterNumber":2,"parameterNumberName":"U-component_of_WINDS"},"data":[0,0,0,0,0,0,0,0,0,0,0,0,0,0,0,0,0,0,0,0,0,0,0,0,0,0,0,0,0,0,0,0,0,0,0,0,0,0,0,0,0,0,0,0,0,0,0,0,0,0,0,0,0,0,0,0,0,0,2.1244,2.1243,0,2.1203,2.1203,2.1202,2.111,2.1108,2.1106,2.1105,2.1067,2.1067,2.1068,0,0,0,0,0,0,0,0,0,0,0,0,0,2.1245,2.1246,2.1244,2.1243,2.1243,2.1203,2.1203,2.1202,2.111,2.1108,2.1106,2.1104,2.1066,2.1067,2.1068,0,0,0,0,0,0,0,0,0,0,0,0,0,2.1229,2.1246,2.1244,2.1192,2.1187,2.1204,2.1203,2.1202,2.1111,2.1108,2.1105,2.1103,2.1066,2.1067,2.1068,2.1133,0,0,2.1072,2.1072,0,0,0,0,0,0,0,0,2.123,2.1229,2.12,2.1196,2.119,2.1159,2.1189,2.1179,2.1112,2.114,2.1104,2.1101,2.11,2.1098,2.1097,2.1131,2.1129,2.1072,2.1073,2.1073,2.1073,0,0,0,0,0,0,0,2.1231,2.123,2.1228,2.12,2.1194,2.1172,2.1167,2.1187,2.1137,2.1137,2.1131,2.1127,2.1097,2.1096,2.1095,2.1129,2.1072,2.1073,2.1074,2.1074,2.1215,2.1217,0,0,0,0,0,0,2.1239,2.1232,2.1229,2.1227,2.1203,2.1174,2.1168,2.1172,2.1136,2.1128,2.1129,2.1123,2.1095,2.1094,2.1094,2.1167,2.1073,2.1074,2.1075,2.1212,2.1215,2.1219,0,0,0,0,0,0,2.124,2.124,2.1231,2.1227,2.1224,2.1177,2.1182,2.1173,2.1172,2.113,2.1121,2.1138,2.1093,2.1092,2.1124,2.1165,2.1075,2.1076,2.1208,2.1213,2.1217,2.1315,0,0,0,0,0,0,2.124,2.1241,2.1264,2.1228,2.1225,2.1261,2.1185,2.1174,2.1174,2.1165,2.1135,2.1128,2.1091,2.1122,2.1125,2.1164,2.1077,2.1204,2.121,2.1215,2.1308,2.1322,2.1335,0,0,0,0,0,2.124,2.1294,2.1265,2.1266,2.1253,2.1263,2.1261,2.1217,2.1177,2.1201,2.1174,2.1129,2.116,2.1126,2.1128,2.1169,2.1201,2.1208,2.1215,2.1302,2.1319,2.1334,0,0,0,0,0,0,2.1336,2.1288,2.1256,2.1299,2.1286,2.1248,2.1276,2.1237,2.1235,2.1227,2.1172,2.1166,2.1206,2.119,2.1154,2.123,2.1173,2.1181,2.1239,2.1255,2.1268,2.1271,2.1078,0,0,0,0,0,2.1362,2.1374,2.1331,2.1374,2.1368,2.1324,2.1327,2.1293,2.1277,2.1272,2.1247,2.1235,2.1241,2.1247,2.1251,2.1305,2.1298,2.1334,2.1347,2.1358,2.1366,2.1394,2.141,2.1241,2.1241,2.1241,0,0,2.1416,2.1391,2.1402,2.1392,2.1378,2.1392,2.132,2.1338,2.1348,2.1275,2.1303,2.1285,2.1267,2.1311,2.1328,2.1299,2.1411,2.1367,2.1376,2.1378,2.1403,2.1419,2.1433,2.1246,2.1245,2.1244,0,0,2.1522,2.1504,2.1537,2.1524,2.1503,2.1473,2.1481,2.1449,2.1434,2.1461,2.1406,2.1419,2.1431,2.1421,2.1418,2.1521,2.1479,2.1523,2.1594,2.1622,2.1635,2.1647,2.1684,2.1698,2.1531,2.1531,2.1531,0,2.1593,2.1611,2.156,2.1581,2.1579,2.1512,2.1546,2.1537,2.1519,2.1519,2.1486,2.1501,2.1484,2.1525,2.155,2.1549,2.1557,2.1527,2.1637,2.1648,2.1658,2.1693,2.1707,2.1537,2.1536,2.1535,2.1535,0,2.1698,2.1712,2.1742,2.1725,2.1726,2.1754,2.1708,2.1716,2.1682,2.1656,2.1685,2.1663,2.1662,2.1668,2.1636,2.1705,2.1687,2.1647,2.1589,2.1681,2.1713,2.1726,2.1544,2.1543,2.1541,2.1539,0,0,2.1864,2.1818,2.183,2.1822,2.1794,2.1804,2.1829,2.1827,2.1834,2.1824,2.1845,2.1857,2.1819,2.1816,2.1782,2.1806,2.189,2.1762,2.1761,2.1788,2.1965,2.1997,2.2013,2.1862,2.1865,2.1866,2.1967,0,2.1964,2.2003,2.1958,2.2008,2.202,2.1957,2.1979,2.1965,2.1942,2.195,2.1924,2.1934,2.1882,2.188,2.1901,2.1876,2.1925,2.1867,2.1882,2.1883,2.1889,2.2029,2.2063,2.2158,2.1979,2.1981,2.1983,0,2.2086,2.208,2.2131,2.2099,2.2103,2.2124,2.2118,2.2126,2.2109,2.209,2.2086,2.2045,2.2069,2.2012,2.2045,2.2007,2.201,2.1999,2.2001,2.2002,2.1939,2.2035,2.2188,2.2203,2.2002,2.2,2.1999,0,2.2202,2.2208,2.2238,2.2233,2.2198,2.2214,2.22,2.218,2.2182,2.2177,2.2178,2.2177,2.2176,2.2177,2.2137,2.2099,2.2176,2.2115,2.2162,2.2163,2.2181,2.2181,2.2338,2.2182,2.2182,2.2182,2.2182,0,2.2319,2.2353,2.229,2.231,2.2346,2.2295,2.2332,2.2312,2.2295,2.231,2.2255,2.2271,2.2217,2.2227,2.2197,2.2229,2.2229,2.2215,2.2207,2.2221,2.2223,2.2223,2.2216,2.2186,2.2185,2.2184,2.2183,0,2.2456,2.2415,2.2445,2.2408,2.24,2.2429,2.2398,2.2415,2.2387,2.2407,2.2409,2.2367,2.2376,2.2336,2.2339,2.2318,2.2367,2.2347,2.2372,2.2367,2.2416,2.2412,2.2579,2.2599,2.243,2.2432,2.2433,0,2.2533,2.2557,2.2523,2.2529,2.2517,2.2527,2.2528,2.2479,2.2483,2.2466,2.2485,2.2489,2.249,2.2508,2.2479,2.2481,2.2461,2.2519,2.2461,2.2474,2.2463,2.2462,2.2465,2.2532,2.2534,2.2536,2.2537,0,2.2675,2.2654,2.2657,2.2653,2.2656,2.2651,2.2642,2.265,2.2597,2.2604,2.2612,2.2613,2.2615,2.2621,2.2617,2.2604,2.2563,2.2556,2.2567,2.2581,2.2596,2.259,2.2406,2.2552,2.2551,2.255,2.2549,2.2548,2.2785,2.2804,2.2783,2.2788,2.2776,2.277,2.2784,2.2758,2.2763,2.2761,2.2732,2.2746,2.2729,2.2719,2.271,2.2721,2.2694,2.271,2.2714,2.2719,2.2728,2.2593,2.272,2.272,2.2719,2.2719,2.2718,0,2.2925,2.2908,2.2913,2.2903,2.2907,2.2866,2.2855,2.2862,2.2875,2.2862,2.2864,2.2874,2.2879,2.285,2.2851,2.2866,2.2847,2.2868,2.2867,2.2865,2.2751,2.2742,2.2883,2.2883,2.2883,2.2883,2.2883,2.2883,2.2998,2.3028,2.3005,2.3028,2.3011,2.3024,2.3021,2.3015,2.3005,2.3018,2.3022,2.3002,2.2983,2.2983,2.2986,2.2977,2.2981,2.3009,2.2994,2.2889,2.2873,2.2858,2.2848,2.301,2.301,2.3107,2.3107,2.3108]},{"header":{"parameterUnit":"m.s-1","parameterCategory":1,"la1":30.2991,"la2":30.254,"lo1":-89.0895,"lo2":-89.0444,"dy":0.0017,"dx":0.0017,"nx":28,"ny":28,"refTime":"2025-06-16T21:00:00:Z","depth":0,"parameterNumber":3,"parameterNumberName":"V-component_of_WINDS"},"data":[0,0,0,0,0,0,0,0,0,0,0,0,0,0,0,0,0,0,0,0,0,0,0,0,0,0,0,0,0,0,0,0,0,0,0,0,0,0,0,0,0,0,0,0,0,0,0,0,0,0,0,0,0,0,0,0,0,0,2.5747,2.5746,0,2.5627,2.5626,2.5624,2.5549,2.5548,2.5548,2.5547,2.542,2.5417,2.5414,0,0,0,0,0,0,0,0,0,0,0,0,0,2.5907,2.5905,2.5747,2.5746,2.5744,2.5627,2.5626,2.5624,2.5549,2.5548,2.5548,2.5547,2.5421,2.5417,2.5413,0,0,0,0,0,0,0,0,0,0,0,0,0,2.5818,2.5904,2.5748,2.5693,2.5687,2.5628,2.5626,2.5624,2.5549,2.5548,2.5547,2.5547,2.5422,2.5417,2.5413,2.5398,0,0,2.5399,2.5397,0,0,0,0,0,0,0,0,2.5823,2.5812,2.5702,2.5697,2.569,2.5602,2.5635,2.5548,2.5549,2.5601,2.5547,2.5547,2.5481,2.5471,2.545,2.5392,2.5386,2.5399,2.5396,2.5394,2.5393,0,0,0,0,0,0,0,2.5829,2.5816,2.57,2.5701,2.5693,2.5673,2.5659,2.5618,2.5546,2.5596,2.5591,2.5578,2.5477,2.5454,2.5446,2.5384,2.5399,2.5395,2.5392,2.539,2.5307,2.5307,0,0,0,0,0,0,2.5845,2.5822,2.5703,2.5696,2.5756,2.567,2.5655,2.5631,2.5546,2.5532,2.5578,2.5575,2.5462,2.5452,2.5442,2.5418,2.5394,2.539,2.5387,2.5306,2.5307,2.5307,0,0,0,0,0,0,2.5848,2.5835,2.5708,2.5758,2.574,2.5668,2.5641,2.5629,2.5606,2.5532,2.5519,2.5569,2.5462,2.5448,2.5409,2.5412,2.5388,2.5384,2.5306,2.5307,2.5307,2.537,0,0,0,0,0,0,2.5853,2.5837,2.5831,2.5758,2.5738,2.568,2.5642,2.5627,2.5599,2.5593,2.552,2.5507,2.546,2.5417,2.5405,2.5405,2.538,2.5305,2.5306,2.5307,2.5368,2.5373,2.5378,0,0,0,0,0,2.5859,2.5853,2.5831,2.5817,2.5729,2.568,2.5668,2.5615,2.56,2.5593,2.5545,2.5509,2.5414,2.5413,2.5399,2.5399,2.5305,2.5306,2.5307,2.5365,2.5372,2.5378,0,0,0,0,0,0,2.5926,2.5842,2.5817,2.5787,2.5742,2.5667,2.5657,2.5624,2.5581,2.5577,2.5512,2.5496,2.5464,2.5427,2.5428,2.5379,2.5355,2.5354,2.5404,2.541,2.5415,2.5424,2.5377,0,0,0,0,0,2.5938,2.5906,2.5834,2.5814,2.5793,2.5729,2.5705,2.5669,2.5618,2.5598,2.5548,2.5499,2.5458,2.5432,2.539,2.5362,2.5344,2.5355,2.536,2.5364,2.5364,2.5346,2.5349,2.5311,2.5311,2.5311,0,0,2.596,2.5911,2.5894,2.5826,2.5786,2.5754,2.5713,2.568,2.5655,2.5592,2.5553,2.5515,2.5456,2.5423,2.5405,2.5391,2.537,2.5366,2.537,2.5366,2.5347,2.5351,2.5354,2.5312,2.5312,2.5312,0,0,2.5985,2.5945,2.5924,2.5886,2.5827,2.5785,2.578,2.5711,2.5683,2.5643,2.5596,2.5564,2.5495,2.5455,2.5425,2.5436,2.5401,2.5424,2.545,2.5433,2.5436,2.5438,2.5442,2.5444,2.5423,2.5423,2.5423,0,2.6021,2.5971,2.5917,2.5887,2.5858,2.5802,2.578,2.5744,2.5674,2.5655,2.5641,2.5553,2.5509,2.5465,2.5468,2.5446,2.5438,2.5431,2.544,2.5442,2.5443,2.5446,2.5447,2.5426,2.5426,2.5426,2.5426,0,2.6017,2.5984,2.5973,2.5909,2.5879,2.5853,2.5794,2.5769,2.5736,2.5695,2.5654,2.56,2.5546,2.5533,2.5499,2.5485,2.5478,2.5453,2.5427,2.5451,2.5452,2.5453,2.5431,2.543,2.5429,2.5428,0,0,2.608,2.5987,2.5984,2.5954,2.5885,2.5857,2.5828,2.5777,2.5757,2.5711,2.5684,2.5627,2.5604,2.5571,2.5532,2.5517,2.5528,2.5494,2.5491,2.5501,2.5508,2.5527,2.5529,2.5505,2.5505,2.5505,2.5513,0,2.6094,2.6041,2.5992,2.5956,2.5924,2.587,2.5845,2.5799,2.5761,2.5726,2.5682,2.5643,2.5615,2.5595,2.5578,2.5531,2.5529,2.553,2.5478,2.5477,2.5495,2.553,2.5549,2.556,2.5513,2.5513,2.5513,0,2.6103,2.6061,2.6023,2.5957,2.5942,2.592,2.5869,2.5838,2.5785,2.5757,2.5721,2.568,2.5646,2.5625,2.5576,2.5577,2.5553,2.5527,2.5526,2.5519,2.5496,2.5523,2.5562,2.5563,2.5513,2.5513,2.5513,0,2.6152,2.6086,2.6054,2.603,2.5953,2.5939,2.5906,2.5853,2.5825,2.578,2.5761,2.5713,2.5686,2.5648,2.5595,2.5585,2.5552,2.5526,2.5527,2.5528,2.5521,2.5522,2.5557,2.5508,2.5508,2.5507,2.5507,0,2.6173,2.6151,2.6075,2.6056,2.603,2.5973,2.5948,2.591,2.5863,2.5834,2.5784,2.5758,2.569,2.5655,2.5613,2.5579,2.5567,2.5543,2.5532,2.5547,2.555,2.553,2.5527,2.5508,2.5508,2.5508,2.5508,0,2.6223,2.6171,2.6133,2.6064,2.6046,2.603,2.597,2.5948,2.5907,2.5871,2.5859,2.5794,2.575,2.5694,2.5632,2.5604,2.5574,2.5557,2.5593,2.5586,2.559,2.559,2.5612,2.5611,2.5564,2.5564,2.5565,0,2.6239,2.6221,2.6151,2.6129,2.6098,2.6063,2.6035,2.5979,2.5951,2.589,2.5875,2.5828,2.5788,2.572,2.5666,2.5619,2.56,2.5611,2.5592,2.5608,2.5599,2.5601,2.5599,2.5615,2.5616,2.5617,2.5617,0,2.6273,2.6249,2.6212,2.6166,2.6134,2.6095,2.6053,2.6037,2.5971,2.5943,2.5899,2.5867,2.5805,2.5758,2.5704,2.5668,2.5631,2.5624,2.5621,2.5636,2.5657,2.5646,2.5605,2.5623,2.5623,2.5622,2.5622,2.5622,2.6306,2.6288,2.6236,2.6196,2.6159,2.6121,2.6098,2.6054,2.6017,2.5963,2.5931,2.5888,2.5835,2.5758,2.5724,2.5688,2.5674,2.5671,2.567,2.567,2.5674,2.5664,2.5678,2.5678,2.5678,2.5677,2.5677,0,2.6337,2.6302,2.6266,2.6209,2.6178,2.6148,2.61,2.6075,2.6039,2.5993,2.5954,2.5903,2.5858,2.5801,2.5752,2.5734,2.5716,2.5723,2.5724,2.5716,2.569,2.5697,2.5739,2.5739,2.5739,2.5739,2.5739,2.5739,2.635,2.6318,2.6287,2.6236,2.6199,2.6158,2.6134,2.6098,2.6061,2.6007,2.597,2.5934,2.5883,2.583,2.5787,2.5771,2.5755,2.5767,2.5746,2.5723,2.5718,2.5712,2.5718,2.5764,2.5764,2.5775,2.5775,2.5775]}]]